Weather History for Kansas City, MO

Change the Weather History Date:

Thursday, October 30, 2014

  Actual Average Record
Temperature  
Mean Temperature 58 °F -  
Max Temperature 69 °F 59 °F 75 °F (2008)
Min Temperature 48 °F 43 °F 35 °F (2012)
Degree Days  
Heating Degree Days 6    
Growing Degree Days 8 (Base 50)    
Moisture  
Dew Point 39 °F    
Average Humidity 51    
Maximum Humidity 66    
Minimum Humidity 32    
Precipitation  
Precipitation 0.00 in - - ()
Sea Level Pressure  
Sea Level Pressure 30.05 in    
Wind  
Wind Speed 8 mph (WNW)    
Max Wind Speed 17 mph    
Max Gust Speed 28 mph    
Visibility 10 miles    
Events      
Averages and records for this station are not official NWS values.
T = Trace of Precipitation, MM = Missing Value Source: NWS Daily Summary

Daily Weather History Graph

Daily Weather History Graph

Search for Another Location

Airport:

Trip Planner

Search our weather history database for the weather conditions in past years. The results will help you decide how hot, cold, wet, or windy it might be!

Date:

Astronomy

Oct. 30, 2014 Rise Set
Actual Time 7:43 AM CDT 6:19 PM CDT
Civil Twilight 7:16 AM CDT 6:47 PM CDT
Nautical Twilight 6:44 AM CDT 7:18 PM CDT
Astronomical Twilight 6:13 AM CDT 7:49 PM CDT
Moon 1:48 PM CDT (10/30) No Moon Set
Length of Visible Light 11h 31m
Length of Day
10h 35m
Waxing Crescent, 45% of the Moon is Illuminated
Oct 30
Waxing Crescent
Oct 30
First Quarter
Nov 6
Full
Nov 14
Last Quarter
Nov 22
New

Hourly Weather History & Observations

Time (CDT) Temp. Dew Point Humidity Pressure Visibility Wind Dir Wind Speed Gust Speed Precip Events Conditions
12:54 AM 50.0 °F 35.1 °F 57% 30.08 in 10.0 mi East 5.8 mph - N/A   Clear
1:54 AM 48.9 °F 35.1 °F 59% 30.06 in 10.0 mi SSW 6.9 mph - N/A   Clear
2:54 AM 50.0 °F 36.0 °F 59% 30.05 in 10.0 mi South 9.2 mph - N/A   Clear
3:54 AM 50.0 °F 36.0 °F 59% 30.03 in 10.0 mi SSW 3.5 mph - N/A   Clear
4:54 AM 48.9 °F 37.0 °F 64% 30.01 in 10.0 mi South 8.1 mph - N/A   Clear
5:54 AM 48.9 °F 37.9 °F 66% 30.00 in 10.0 mi South 6.9 mph - N/A   Partly Cloudy
6:54 AM 52.0 °F 39.9 °F 63% 30.00 in 10.0 mi Calm Calm - N/A   Overcast
7:54 AM 54.0 °F 39.9 °F 59% 30.01 in 10.0 mi NW 5.8 mph - N/A   Mostly Cloudy
8:54 AM 55.0 °F 41.0 °F 59% 30.02 in 10.0 mi SW 4.6 mph - N/A   Overcast
9:54 AM 55.9 °F 42.1 °F 60% 30.02 in 10.0 mi SW 4.6 mph - N/A   Overcast
10:54 AM 60.1 °F 42.1 °F 51% 30.01 in 10.0 mi West 6.9 mph - N/A   Clear
11:54 AM 64.0 °F 41.0 °F 43% 30.01 in 10.0 mi WNW 10.4 mph - N/A   Clear
12:54 PM 66.9 °F 39.9 °F 37% 30.00 in 10.0 mi NW 11.5 mph - N/A   Clear
1:54 PM 68.0 °F 37.0 °F 32% 29.99 in 10.0 mi NNW 13.8 mph 24.2 mph N/A   Clear
2:54 PM 68.0 °F 39.0 °F 35% 29.99 in 10.0 mi NW 15.0 mph 23.0 mph N/A   Clear
3:54 PM 69.1 °F 39.0 °F 33% 30.00 in 10.0 mi NW 13.8 mph 27.6 mph 0.00 in   Clear
4:54 PM 66.9 °F 39.0 °F 36% 30.02 in 10.0 mi NW 17.3 mph 25.3 mph 0.00 in   Clear
5:54 PM 64.9 °F 39.9 °F 40% 30.05 in 10.0 mi NW 15.0 mph 21.9 mph N/A   Clear
6:54 PM 62.1 °F 41.0 °F 46% 30.07 in 10.0 mi NNW 8.1 mph - N/A   Partly Cloudy
7:54 PM 60.1 °F 42.1 °F 51% 30.10 in 10.0 mi NNW 8.1 mph - N/A   Partly Cloudy
8:54 PM 59.0 °F 41.0 °F 51% 30.12 in 10.0 mi NNW 8.1 mph - N/A   Clear
9:54 PM 57.9 °F 41.0 °F 53% 30.14 in 10.0 mi NNW 10.4 mph 20.7 mph N/A   Clear
10:54 PM 55.0 °F 41.0 °F 59% 30.18 in 10.0 mi North 12.7 mph - N/A   Clear
11:54 PM 53.1 °F 39.9 °F 61% 30.20 in 10.0 mi North 11.5 mph 19.6 mph N/A   Clear